Time,TemperatureF,DewpointF,PressureIn,WindDirection,WindDirectionDegrees,WindSpeedMPH,WindSpeedGustMPH,Humidity,HourlyPrecipIn,Conditions,Clouds,dailyrainin,SoftwareType,DateUTC
2013-06-19 00:00:00,67.1,63.7,29.82,North,0,0.0,0.0,89,0.00,,,0.22,WUHU216HW,2013-06-19 04:00:00,
2013-06-19 00:01:00,67.1,63.7,29.82,North,0,0.0,0.0,89,0.00,,,0.00,WUHU216HW,2013-06-19 04:01:00,
2013-06-19 00:06:00,67.3,63.9,29.82,North,0,0.0,0.0,89,0.00,,,0.00,WUHU216HW,2013-06-19 04:06:00,
2013-06-19 00:11:00,67.1,63.5,29.82,North,0,0.0,0.0,88,0.00,,,0.00,WUHU216HW,2013-06-19 04:11:00,
2013-06-19 00:16:00,67.1,63.5,29.82,North,0,0.0,0.0,88,0.00,,,0.00,WUHU216HW,2013-06-19 04:16:00,
2013-06-19 00:21:00,67.0,63.5,29.82,North,0,0.0,0.0,89,0.00,,,0.00,WUHU216HW,2013-06-19 04:21:00,
2013-06-19 00:26:00,66.8,63.1,29.82,North,0,0.0,0.0,88,0.00,,,0.00,WUHU216HW,2013-06-19 04:26:00,
2013-06-19 00:31:00,66.8,63.1,29.82,North,0,0.0,0.0,88,0.00,,,0.00,WUHU216HW,2013-06-19 04:31:00,
2013-06-19 00:36:00,66.8,63.1,29.82,North,0,0.0,0.0,88,0.00,,,0.00,WUHU216HW,2013-06-19 04:36:00,
2013-06-19 00:41:00,66.8,63.1,29.82,North,0,0.0,0.0,88,0.00,,,0.00,WUHU216HW,2013-06-19 04:41:00,
2013-06-19 00:46:00,66.6,62.9,29.82,North,0,0.0,0.0,88,0.00,,,0.00,WUHU216HW,2013-06-19 04:46:00,
2013-06-19 00:51:00,66.6,62.9,29.82,North,0,0.0,0.0,88,0.00,,,0.00,WUHU216HW,2013-06-19 04:51:00,
2013-06-19 00:56:00,66.2,62.6,29.82,North,0,0.0,0.0,88,0.00,,,0.00,WUHU216HW,2013-06-19 04:56:00,
2013-06-19 01:01:00,66.2,62.6,29.82,North,0,0.0,0.0,88,0.00,,,0.00,WUHU216HW,2013-06-19 05:01:00,
2013-06-19 01:06:00,66.1,62.4,29.82,North,0,0.0,0.0,88,0.00,,,0.00,WUHU216HW,2013-06-19 05:06:00,
2013-06-19 01:11:00,66.2,62.6,29.82,North,0,0.0,0.0,88,0.00,,,0.00,WUHU216HW,2013-06-19 05:11:00,
2013-06-19 01:16:00,66.2,62.6,29.82,North,0,0.0,0.0,88,0.00,,,0.00,WUHU216HW,2013-06-19 05:16:00,
2013-06-19 01:21:00,66.2,62.6,29.83,North,0,0.0,0.0,88,0.00,,,0.00,WUHU216HW,2013-06-19 05:21:00,
2013-06-19 01:26:00,66.2,62.2,29.83,North,0,0.0,0.0,87,0.00,,,0.00,WUHU216HW,2013-06-19 05:26:00,
2013-06-19 01:31:00,66.2,62.2,29.82,North,0,0.0,0.0,87,0.00,,,0.00,WUHU216HW,2013-06-19 05:31:00,
2013-06-19 01:36:00,65.9,61.8,29.83,North,0,0.0,0.0,87,0.00,,,0.00,WUHU216HW,2013-06-19 05:36:00,
2013-06-19 01:41:00,65.9,62.2,29.82,North,0,0.0,0.0,88,0.00,,,0.00,WUHU216HW,2013-06-19 05:41:00,
2013-06-19 01:46:00,65.7,62.0,29.82,North,0,0.0,0.0,88,0.00,,,0.00,WUHU216HW,2013-06-19 05:46:00,
2013-06-19 01:51:00,65.5,61.8,29.82,North,0,0.0,0.0,88,0.00,,,0.00,WUHU216HW,2013-06-19 05:51:00,
2013-06-19 01:56:00,65.5,61.8,29.82,North,0,0.0,0.0,88,0.00,,,0.00,WUHU216HW,2013-06-19 05:56:00,
2013-06-19 02:01:00,65.3,61.8,29.82,North,0,0.0,0.0,88,0.00,,,0.00,WUHU216HW,2013-06-19 06:01:00,
2013-06-19 02:06:00,65.2,61.6,29.82,North,0,0.0,0.0,88,0.00,,,0.00,WUHU216HW,2013-06-19 06:06:00,
2013-06-19 02:11:00,65.2,61.2,29.82,North,0,0.0,0.0,87,0.00,,,0.00,WUHU216HW,2013-06-19 06:11:00,
2013-06-19 02:16:00,65.0,61.4,29.82,North,0,0.0,0.0,88,0.00,,,0.00,WUHU216HW,2013-06-19 06:16:00,
2013-06-19 02:21:00,64.8,60.8,29.83,North,0,0.0,0.0,87,0.00,,,0.00,WUHU216HW,2013-06-19 06:21:00,
2013-06-19 02:26:00,64.8,61.2,29.83,North,0,0.0,0.0,88,0.00,,,0.00,WUHU216HW,2013-06-19 06:26:00,
2013-06-19 02:31:00,64.6,61.0,29.83,North,0,0.0,0.0,88,0.00,,,0.00,WUHU216HW,2013-06-19 06:31:00,
2013-06-19 02:36:00,64.6,61.0,29.83,North,0,0.0,0.0,88,0.00,,,0.00,WUHU216HW,2013-06-19 06:36:00,
2013-06-19 02:41:00,64.6,61.0,29.83,North,0,0.0,0.0,88,0.00,,,0.00,WUHU216HW,2013-06-19 06:41:00,
2013-06-19 02:46:00,64.6,61.0,29.83,North,0,0.0,0.0,88,0.00,,,0.00,WUHU216HW,2013-06-19 06:46:00,
2013-06-19 02:51:00,64.4,60.6,29.83,North,0,0.0,0.0,87,0.00,,,0.00,WUHU216HW,2013-06-19 06:51:00,
2013-06-19 02:56:00,64.4,60.8,29.83,North,0,0.0,0.0,88,0.00,,,0.00,WUHU216HW,2013-06-19 06:56:00,
2013-06-19 03:01:00,64.4,60.6,29.83,North,0,0.0,0.0,87,0.00,,,0.00,WUHU216HW,2013-06-19 07:01:00,
2013-06-19 03:06:00,64.4,60.8,29.84,North,0,0.0,0.0,88,0.00,,,0.00,WUHU216HW,2013-06-19 07:06:00,
2013-06-19 03:11:00,64.1,60.2,29.83,North,0,0.0,0.0,87,0.00,,,0.00,WUHU216HW,2013-06-19 07:11:00,
2013-06-19 03:16:00,64.1,60.2,29.83,North,0,0.0,0.0,87,0.00,,,0.00,WUHU216HW,2013-06-19 07:16:00,
2013-06-19 03:21:00,63.9,60.0,29.83,North,0,0.0,0.0,87,0.00,,,0.00,WUHU216HW,2013-06-19 07:21:00,
2013-06-19 03:26:00,63.7,59.9,29.84,North,0,0.0,0.0,87,0.00,,,0.00,WUHU216HW,2013-06-19 07:26:00,
2013-06-19 03:31:00,63.5,59.7,29.83,North,0,0.0,0.0,87,0.00,,,0.00,WUHU216HW,2013-06-19 07:31:00,
2013-06-19 03:36:00,63.5,59.7,29.83,North,0,0.0,0.0,87,0.00,,,0.00,WUHU216HW,2013-06-19 07:36:00,
2013-06-19 03:41:00,63.5,59.7,29.83,North,0,0.0,0.0,87,0.00,,,0.00,WUHU216HW,2013-06-19 07:41:00,
2013-06-19 03:46:00,63.5,59.7,29.84,North,0,0.0,0.0,87,0.00,,,0.00,WUHU216HW,2013-06-19 07:46:00,
2013-06-19 03:51:00,63.7,59.9,29.84,North,0,0.0,0.0,87,0.00,,,0.00,WUHU216HW,2013-06-19 07:51:00,
2013-06-19 03:56:00,63.7,59.5,29.83,North,0,0.0,0.0,86,0.00,,,0.00,WUHU216HW,2013-06-19 07:56:00,
2013-06-19 04:01:00,63.5,59.3,29.84,North,0,0.0,0.0,86,0.00,,,0.00,WUHU216HW,2013-06-19 08:01:00,
2013-06-19 04:06:00,63.5,59.3,29.84,North,0,0.0,0.0,86,0.00,,,0.00,WUHU216HW,2013-06-19 08:06:00,
2013-06-19 04:11:00,63.4,59.1,29.84,North,0,0.0,0.0,86,0.00,,,0.00,WUHU216HW,2013-06-19 08:11:00,
2013-06-19 04:16:00,63.2,59.0,29.85,North,0,0.0,0.0,86,0.00,,,0.00,WUHU216HW,2013-06-19 08:16:00,
2013-06-19 04:21:00,63.2,59.0,29.85,North,0,0.0,0.0,86,0.00,,,0.00,WUHU216HW,2013-06-19 08:21:00,
2013-06-19 04:26:00,63.0,58.4,29.85,North,0,0.0,0.0,85,0.00,,,0.00,WUHU216HW,2013-06-19 08:26:00,
2013-06-19 04:31:00,62.8,57.9,29.85,North,0,0.0,0.0,84,0.00,,,0.00,WUHU216HW,2013-06-19 08:31:00,
2013-06-19 04:36:00,62.6,58.1,29.86,North,0,0.0,0.0,85,0.00,,,0.00,WUHU216HW,2013-06-19 08:36:00,
2013-06-19 04:41:00,62.6,58.1,29.86,North,0,0.0,0.0,85,0.00,,,0.00,WUHU216HW,2013-06-19 08:41:00,
2013-06-19 04:46:00,62.6,58.1,29.86,North,0,0.0,0.0,85,0.00,,,0.00,WUHU216HW,2013-06-19 08:46:00,
2013-06-19 04:51:00,62.5,57.9,29.86,North,0,0.0,0.0,85,0.00,,,0.00,WUHU216HW,2013-06-19 08:51:00,
2013-06-19 04:56:00,62.6,58.1,29.86,North,0,0.0,0.0,85,0.00,,,0.00,WUHU216HW,2013-06-19 08:56:00,
2013-06-19 05:01:00,62.6,58.1,29.86,North,0,0.0,0.0,85,0.00,,,0.00,WUHU216HW,2013-06-19 09:01:00,
2013-06-19 05:06:00,62.5,57.5,29.86,North,0,0.0,0.0,84,0.00,,,0.00,WUHU216HW,2013-06-19 09:06:00,
2013-06-19 05:11:00,62.3,57.3,29.86,North,0,0.0,0.0,84,0.00,,,0.00,WUHU216HW,2013-06-19 09:11:00,
2013-06-19 05:16:00,62.1,57.3,29.86,North,0,0.0,0.0,84,0.00,,,0.00,WUHU216HW,2013-06-19 09:16:00,
2013-06-19 05:21:00,62.1,56.9,29.87,North,0,0.0,0.0,83,0.00,,,0.00,WUHU216HW,2013-06-19 09:21:00,
2013-06-19 05:26:00,61.9,57.1,29.86,North,0,0.0,0.0,84,0.00,,,0.00,WUHU216HW,2013-06-19 09:26:00,
2013-06-19 05:31:00,61.7,56.9,29.86,North,0,0.0,0.0,84,0.00,,,0.00,WUHU216HW,2013-06-19 09:31:00,
2013-06-19 05:36:00,61.7,56.5,29.86,North,0,0.0,0.0,83,0.00,,,0.00,WUHU216HW,2013-06-19 09:36:00,
2013-06-19 05:41:00,61.6,56.3,29.86,North,0,0.0,0.0,83,0.00,,,0.00,WUHU216HW,2013-06-19 09:41:00,
2013-06-19 05:46:00,61.6,56.7,29.86,North,0,0.0,0.0,84,0.00,,,0.00,WUHU216HW,2013-06-19 09:46:00,
2013-06-19 05:51:00,61.6,56.7,29.87,North,0,0.0,0.0,84,0.00,,,0.00,WUHU216HW,2013-06-19 09:51:00,
2013-06-19 05:56:00,61.4,56.5,29.87,North,0,0.0,0.0,84,0.00,,,0.00,WUHU216HW,2013-06-19 09:56:00,
2013-06-19 06:01:00,61.4,56.5,29.87,North,0,0.0,0.0,84,0.00,,,0.00,WUHU216HW,2013-06-19 10:01:00,
2013-06-19 06:06:00,61.4,56.5,29.87,North,0,0.0,0.0,84,0.00,,,0.00,WUHU216HW,2013-06-19 10:06:00,
2013-06-19 06:11:00,61.4,56.5,29.87,North,0,0.0,0.0,84,0.00,,,0.00,WUHU216HW,2013-06-19 10:11:00,
2013-06-19 06:16:00,61.4,56.2,29.87,North,0,0.0,0.0,83,0.00,,,0.00,WUHU216HW,2013-06-19 10:16:00,
2013-06-19 06:21:00,61.6,56.7,29.87,North,0,0.0,0.0,84,0.00,,,0.00,WUHU216HW,2013-06-19 10:21:00,
2013-06-19 06:26:00,61.6,56.3,29.87,North,0,0.0,0.0,83,0.00,,,0.00,WUHU216HW,2013-06-19 10:26:00,
2013-06-19 06:31:00,61.6,56.3,29.88,North,0,0.0,0.0,83,0.00,,,0.00,WUHU216HW,2013-06-19 10:31:00,
2013-06-19 06:36:00,61.6,56.3,29.88,North,0,0.0,0.0,83,0.00,,,0.00,WUHU216HW,2013-06-19 10:36:00,
2013-06-19 06:41:00,61.7,56.9,29.88,North,0,0.0,0.0,84,0.00,,,0.00,WUHU216HW,2013-06-19 10:41:00,
2013-06-19 06:46:00,61.6,56.7,29.88,North,0,0.0,0.0,84,0.00,,,0.00,WUHU216HW,2013-06-19 10:46:00,
2013-06-19 06:51:00,61.7,56.5,29.88,North,0,0.0,0.0,83,0.00,,,0.00,WUHU216HW,2013-06-19 10:51:00,
2013-06-19 06:56:00,61.7,56.9,29.89,North,0,0.0,0.0,84,0.00,,,0.00,WUHU216HW,2013-06-19 10:56:00,
2013-06-19 07:01:00,61.9,56.7,29.89,North,0,0.0,0.0,83,0.00,,,0.00,WUHU216HW,2013-06-19 11:01:00,
2013-06-19 07:06:00,61.9,56.7,29.90,North,0,0.0,0.0,83,0.00,,,0.00,WUHU216HW,2013-06-19 11:06:00,
2013-06-19 07:11:00,62.1,56.9,29.90,North,0,0.0,0.0,83,0.00,,,0.00,WUHU216HW,2013-06-19 11:11:00,
2013-06-19 07:16:00,62.1,56.5,29.90,North,0,0.0,0.0,82,0.00,,,0.00,WUHU216HW,2013-06-19 11:16:00,
2013-06-19 07:21:00,62.3,56.7,29.90,North,0,0.0,0.0,82,0.00,,,0.00,WUHU216HW,2013-06-19 11:21:00,
2013-06-19 07:26:00,62.3,56.3,29.90,North,0,0.0,0.0,81,0.00,,,0.00,WUHU216HW,2013-06-19 11:26:00,
2013-06-19 07:31:00,62.6,56.7,29.91,North,0,0.0,0.0,81,0.00,,,0.00,WUHU216HW,2013-06-19 11:31:00,
2013-06-19 07:36:00,63.0,56.7,29.91,North,0,0.0,0.0,80,0.00,,,0.00,WUHU216HW,2013-06-19 11:36:00,
2013-06-19 07:41:00,63.0,56.7,29.91,North,0,0.0,0.0,80,0.00,,,0.00,WUHU216HW,2013-06-19 11:41:00,
2013-06-19 07:46:00,63.4,57.1,29.92,North,0,0.0,0.0,80,0.00,,,0.00,WUHU216HW,2013-06-19 11:46:00,
2013-06-19 07:51:00,63.5,57.2,29.93,North,0,0.0,0.0,80,0.00,,,0.00,WUHU216HW,2013-06-19 11:51:00,
2013-06-19 07:56:00,63.7,56.3,29.93,North,0,0.0,0.0,77,0.00,,,0.00,WUHU216HW,2013-06-19 11:56:00,
2013-06-19 08:01:00,63.7,56.3,29.93,North,0,0.0,0.0,77,0.00,,,0.00,WUHU216HW,2013-06-19 12:01:00,
2013-06-19 08:06:00,63.9,56.5,29.94,North,0,0.0,0.0,77,0.00,,,0.00,WUHU216HW,2013-06-19 12:06:00,
2013-06-19 08:11:00,63.9,55.8,29.94,North,0,0.0,0.0,75,0.00,,,0.00,WUHU216HW,2013-06-19 12:11:00,
2013-06-19 08:16:00,63.9,55.1,29.94,North,0,0.0,0.0,73,0.00,,,0.00,WUHU216HW,2013-06-19 12:16:00,
2013-06-19 08:21:00,63.9,55.8,29.94,North,0,0.0,0.0,75,0.00,,,0.00,WUHU216HW,2013-06-19 12:21:00,
2013-06-19 08:26:00,64.3,55.8,29.94,North,0,0.0,0.0,74,0.00,,,0.00,WUHU216HW,2013-06-19 12:26:00,
2013-06-19 08:31:00,64.4,56.7,29.95,North,0,0.0,0.0,76,0.00,,,0.00,WUHU216HW,2013-06-19 12:31:00,
2013-06-19 08:36:00,64.4,56.0,29.95,North,0,0.0,0.0,74,0.00,,,0.00,WUHU216HW,2013-06-19 12:36:00,
2013-06-19 08:41:00,64.6,54.7,29.95,North,0,0.0,0.0,70,0.00,,,0.00,WUHU216HW,2013-06-19 12:41:00,
2013-06-19 08:46:00,64.8,54.9,29.95,North,0,0.0,0.0,70,0.00,,,0.00,WUHU216HW,2013-06-19 12:46:00,
2013-06-19 08:51:00,65.0,55.0,29.95,North,0,0.0,0.0,70,0.00,,,0.00,WUHU216HW,2013-06-19 12:51:00,
2013-06-19 08:56:00,65.2,55.2,29.95,North,0,0.0,0.0,70,0.00,,,0.00,WUHU216HW,2013-06-19 12:56:00,
2013-06-19 09:01:00,65.5,55.1,29.95,North,0,0.0,0.0,69,0.00,,,0.00,WUHU216HW,2013-06-19 13:01:00,
2013-06-19 09:06:00,65.9,54.5,29.95,North,0,0.0,0.0,67,0.00,,,0.00,WUHU216HW,2013-06-19 13:06:00,
2013-06-19 09:11:00,67.3,55.1,29.95,North,0,0.0,0.0,65,0.00,,,0.00,WUHU216HW,2013-06-19 13:11:00,
2013-06-19 09:16:00,68.9,56.7,29.96,North,0,0.0,0.0,65,0.00,,,0.00,WUHU216HW,2013-06-19 13:16:00,
2013-06-19 09:21:00,70.2,57.4,29.96,North,0,0.0,0.0,64,0.00,,,0.00,WUHU216HW,2013-06-19 13:21:00,
2013-06-19 09:26:00,70.6,55.1,29.96,North,0,0.0,0.0,58,0.00,,,0.00,WUHU216HW,2013-06-19 13:26:00,
2013-06-19 09:31:00,70.6,57.0,29.96,North,0,0.0,0.0,62,0.00,,,0.00,WUHU216HW,2013-06-19 13:31:00,
2013-06-19 09:36:00,70.0,55.1,29.96,North,0,0.0,0.0,59,0.00,,,0.00,WUHU216HW,2013-06-19 13:36:00,
2013-06-19 09:41:00,70.2,55.3,29.96,North,0,0.0,0.0,59,0.00,,,0.00,WUHU216HW,2013-06-19 13:41:00,
2013-06-19 09:46:00,71.5,57.3,29.97,North,0,0.0,0.0,61,0.00,,,0.00,WUHU216HW,2013-06-19 13:46:00,
2013-06-19 09:51:00,72.0,56.9,29.97,North,0,0.0,0.0,59,0.00,,,0.00,WUHU216HW,2013-06-19 13:51:00,
2013-06-19 09:56:00,71.5,55.9,29.98,North,0,0.0,0.0,58,0.00,,,0.00,WUHU216HW,2013-06-19 13:56:00,
2013-06-19 10:01:00,71.1,54.5,29.98,North,0,0.0,0.0,56,0.00,,,0.00,WUHU216HW,2013-06-19 14:01:00,
2013-06-19 10:06:00,70.7,55.7,29.98,North,0,0.0,0.0,59,0.00,,,0.00,WUHU216HW,2013-06-19 14:06:00,
2013-06-19 10:11:00,70.6,55.1,29.98,North,0,0.0,0.0,58,0.00,,,0.00,WUHU216HW,2013-06-19 14:11:00,
2013-06-19 10:16:00,70.7,55.7,29.98,North,0,0.0,0.0,59,0.00,,,0.00,WUHU216HW,2013-06-19 14:16:00,
2013-06-19 10:21:00,70.9,55.9,29.98,North,0,0.0,0.0,59,0.00,,,0.00,WUHU216HW,2013-06-19 14:21:00,
2013-06-19 10:26:00,70.9,54.9,29.98,North,0,0.0,0.0,57,0.00,,,0.00,WUHU216HW,2013-06-19 14:26:00,
2013-06-19 10:31:00,70.6,54.1,29.98,North,0,0.0,0.0,56,0.00,,,0.00,WUHU216HW,2013-06-19 14:31:00,
2013-06-19 10:36:00,70.6,54.5,29.98,North,0,0.0,0.0,57,0.00,,,0.00,WUHU216HW,2013-06-19 14:36:00,
2013-06-19 10:41:00,70.6,52.6,29.98,North,0,0.0,0.0,53,0.00,,,0.00,WUHU216HW,2013-06-19 14:41:00,
2013-06-19 10:46:00,70.4,53.4,29.98,North,0,0.0,0.0,55,0.00,,,0.00,WUHU216HW,2013-06-19 14:46:00,
2013-06-19 10:51:00,70.4,53.4,29.98,North,0,0.0,0.0,55,0.00,,,0.00,WUHU216HW,2013-06-19 14:51:00,
2013-06-19 10:56:00,70.4,53.9,29.98,North,0,0.0,0.0,56,0.00,,,0.00,WUHU216HW,2013-06-19 14:56:00,
2013-06-19 11:01:00,70.6,54.5,29.98,North,0,0.0,0.0,57,0.00,,,0.00,WUHU216HW,2013-06-19 15:01:00,
2013-06-19 11:06:00,70.7,54.3,29.98,North,0,0.0,0.0,56,0.00,,,0.00,WUHU216HW,2013-06-19 15:06:00,
2013-06-19 11:11:00,70.7,54.3,29.98,North,0,0.0,0.0,56,0.00,,,0.00,WUHU216HW,2013-06-19 15:11:00,
2013-06-19 11:16:00,70.9,54.4,29.99,North,0,0.0,0.0,56,0.00,,,0.00,WUHU216HW,2013-06-19 15:16:00,
2013-06-19 11:21:00,71.1,54.5,29.99,North,0,0.0,0.0,56,0.00,,,0.00,WUHU216HW,2013-06-19 15:21:00,
2013-06-19 11:26:00,71.5,52.8,29.99,North,0,0.0,0.0,52,0.00,,,0.00,WUHU216HW,2013-06-19 15:26:00,
2013-06-19 11:31:00,71.6,54.5,29.99,North,0,0.0,0.0,55,0.00,,,0.00,WUHU216HW,2013-06-19 15:31:00,
2013-06-19 11:36:00,71.6,54.5,29.99,North,0,0.0,0.0,55,0.00,,,0.00,WUHU216HW,2013-06-19 15:36:00,
2013-06-19 11:41:00,71.5,53.9,29.99,North,0,0.0,0.0,54,0.00,,,0.00,WUHU216HW,2013-06-19 15:41:00,
2013-06-19 11:46:00,71.6,54.0,29.99,North,0,0.0,0.0,54,0.00,,,0.00,WUHU216HW,2013-06-19 15:46:00,
2013-06-19 11:51:00,71.5,53.4,29.99,North,0,0.0,0.0,53,0.00,,,0.00,WUHU216HW,2013-06-19 15:51:00,
2013-06-19 11:56:00,71.5,52.8,29.99,North,0,0.0,0.0,52,0.00,,,0.00,WUHU216HW,2013-06-19 15:56:00,
2013-06-19 12:01:00,71.6,54.5,29.99,North,0,0.0,0.0,55,0.00,,,0.00,WUHU216HW,2013-06-19 16:01:00,
2013-06-19 12:06:00,72.0,53.8,29.99,North,0,0.0,0.0,53,0.00,,,0.00,WUHU216HW,2013-06-19 16:06:00,
2013-06-19 12:11:00,72.2,53.0,29.99,North,0,0.0,0.0,51,0.00,,,0.00,WUHU216HW,2013-06-19 16:11:00,
2013-06-19 12:16:00,72.2,51.3,29.99,North,0,0.0,0.0,48,0.00,,,0.00,WUHU216HW,2013-06-19 16:16:00,
2013-06-19 12:21:00,72.4,52.1,29.99,North,0,0.0,0.0,49,0.00,,,0.00,WUHU216HW,2013-06-19 16:21:00,
2013-06-19 12:26:00,72.5,52.2,29.99,North,0,0.0,0.0,49,0.00,,,0.00,WUHU216HW,2013-06-19 16:26:00,
2013-06-19 12:31:00,72.7,50.1,29.99,North,0,0.0,0.0,45,0.00,,,0.00,WUHU216HW,2013-06-19 16:31:00,
2013-06-19 12:36:00,73.1,48.6,29.99,North,0,0.0,0.0,42,0.00,,,0.00,WUHU216HW,2013-06-19 16:36:00,
2013-06-19 12:41:00,73.1,50.9,29.99,North,0,0.0,0.0,46,0.00,,,0.00,WUHU216HW,2013-06-19 16:41:00,
2013-06-19 12:46:00,73.3,50.0,29.99,North,0,0.0,0.0,44,0.00,,,0.00,WUHU216HW,2013-06-19 16:46:00,
2013-06-19 12:51:00,73.3,49.3,29.99,North,0,0.0,0.0,43,0.00,,,0.00,WUHU216HW,2013-06-19 16:51:00,
2013-06-19 12:56:00,73.1,50.9,29.99,North,0,0.0,0.0,46,0.00,,,0.00,WUHU216HW,2013-06-19 16:56:00,
2013-06-19 13:01:00,73.3,50.0,29.99,North,0,0.0,0.0,44,0.00,,,0.00,WUHU216HW,2013-06-19 17:01:00,
2013-06-19 13:06:00,73.1,50.9,29.99,North,0,0.0,0.0,46,0.00,,,0.00,WUHU216HW,2013-06-19 17:06:00,
2013-06-19 13:11:00,73.4,51.8,29.99,North,0,0.0,0.0,47,0.00,,,0.00,WUHU216HW,2013-06-19 17:11:00,
2013-06-19 13:16:00,74.0,51.2,29.99,North,0,0.0,0.0,45,0.00,,,0.00,WUHU216HW,2013-06-19 17:16:00,
2013-06-19 13:21:00,74.3,51.6,29.99,North,0,0.0,0.0,45,0.00,,,0.00,WUHU216HW,2013-06-19 17:21:00,
2013-06-19 13:26:00,74.5,52.9,29.99,North,0,0.0,0.0,47,0.00,,,0.00,WUHU216HW,2013-06-19 17:26:00,
2013-06-19 13:31:00,74.9,51.4,30.00,North,0,0.0,0.0,44,0.00,,,0.00,WUHU216HW,2013-06-19 17:31:00,
2013-06-19 13:36:00,74.5,52.9,30.00,North,0,0.0,0.0,47,0.00,,,0.00,WUHU216HW,2013-06-19 17:36:00,
2013-06-19 13:41:00,74.3,52.8,29.99,North,0,0.0,0.0,47,0.00,,,0.00,WUHU216HW,2013-06-19 17:41:00,
2013-06-19 13:46:00,74.5,52.9,29.99,North,0,0.0,0.0,47,0.00,,,0.00,WUHU216HW,2013-06-19 17:46:00,
2013-06-19 13:51:00,74.3,52.1,30.00,North,0,0.0,0.0,46,0.00,,,0.00,WUHU216HW,2013-06-19 17:51:00,
2013-06-19 13:56:00,74.2,52.6,29.99,North,0,0.0,0.0,47,0.00,,,0.00,WUHU216HW,2013-06-19 17:56:00,
2013-06-19 14:01:00,74.3,52.1,29.99,North,0,0.0,0.0,46,0.00,,,0.00,WUHU216HW,2013-06-19 18:01:00,
2013-06-19 14:06:00,74.5,53.6,30.00,North,0,0.0,0.0,48,0.00,,,0.00,WUHU216HW,2013-06-19 18:06:00,
2013-06-19 14:11:00,74.5,52.9,30.00,North,0,0.0,0.0,47,0.00,,,0.00,WUHU216HW,2013-06-19 18:11:00,
2013-06-19 14:16:00,74.5,53.6,30.00,North,0,0.0,0.0,48,0.00,,,0.00,WUHU216HW,2013-06-19 18:16:00,
2013-06-19 14:21:00,74.5,52.3,30.00,North,0,0.0,0.0,46,0.00,,,0.00,WUHU216HW,2013-06-19 18:21:00,
2013-06-19 14:26:00,74.5,52.9,30.00,North,0,0.0,0.0,47,0.00,,,0.00,WUHU216HW,2013-06-19 18:26:00,
2013-06-19 14:31:00,74.5,52.9,30.00,North,0,0.0,0.0,47,0.00,,,0.00,WUHU216HW,2013-06-19 18:31:00,
2013-06-19 14:36:00,74.2,52.6,30.00,North,0,0.0,0.0,47,0.00,,,0.00,WUHU216HW,2013-06-19 18:36:00,
2013-06-19 14:41:00,74.2,53.2,30.00,North,0,0.0,0.0,48,0.00,,,0.00,WUHU216HW,2013-06-19 18:41:00,
2013-06-19 14:46:00,74.5,54.1,30.00,North,0,0.0,0.0,49,0.00,,,0.00,WUHU216HW,2013-06-19 18:46:00,
2013-06-19 14:51:00,74.7,53.1,30.01,North,0,0.0,0.0,47,0.00,,,0.00,WUHU216HW,2013-06-19 18:51:00,
2013-06-19 14:56:00,74.9,52.0,30.00,North,0,0.0,0.0,45,0.00,,,0.00,WUHU216HW,2013-06-19 18:56:00,
2013-06-19 15:01:00,74.9,53.3,30.00,North,0,0.0,0.0,47,0.00,,,0.00,WUHU216HW,2013-06-19 19:01:00,
2013-06-19 15:06:00,75.2,52.4,30.00,North,0,0.0,0.0,45,0.00,,,0.00,WUHU216HW,2013-06-19 19:06:00,
2013-06-19 15:11:00,75.4,54.4,30.00,North,0,0.0,0.0,48,0.00,,,0.00,WUHU216HW,2013-06-19 19:11:00,
2013-06-19 15:16:00,75.4,54.4,30.00,North,0,0.0,0.0,48,0.00,,,0.00,WUHU216HW,2013-06-19 19:16:00,
2013-06-19 15:21:00,75.4,53.7,30.00,North,0,0.0,0.0,47,0.00,,,0.00,WUHU216HW,2013-06-19 19:21:00,
2013-06-19 15:26:00,75.4,53.2,30.00,North,0,0.0,0.0,46,0.00,,,0.00,WUHU216HW,2013-06-19 19:26:00,
2013-06-19 15:31:00,75.4,53.7,30.01,North,0,0.0,0.0,47,0.00,,,0.00,WUHU216HW,2013-06-19 19:31:00,
2013-06-19 15:36:00,75.6,54.5,30.01,North,0,0.0,0.0,48,0.00,,,0.00,WUHU216HW,2013-06-19 19:36:00,
2013-06-19 15:41:00,75.6,54.5,30.01,North,0,0.0,0.0,48,0.00,,,0.00,WUHU216HW,2013-06-19 19:41:00,
2013-06-19 15:46:00,75.6,52.1,30.01,North,0,0.0,0.0,44,0.00,,,0.00,WUHU216HW,2013-06-19 19:46:00,
2013-06-19 15:51:00,75.6,53.9,30.01,North,0,0.0,0.0,47,0.00,,,0.00,WUHU216HW,2013-06-19 19:51:00,
2013-06-19 15:56:00,75.6,53.9,30.01,North,0,0.0,0.0,47,0.00,,,0.00,WUHU216HW,2013-06-19 19:56:00,
2013-06-19 16:01:00,75.6,52.1,30.01,North,0,0.0,0.0,44,0.00,,,0.00,WUHU216HW,2013-06-19 20:01:00,
2013-06-19 16:06:00,75.6,52.8,30.01,North,0,0.0,0.0,45,0.00,,,0.00,WUHU216HW,2013-06-19 20:06:00,
2013-06-19 16:11:00,75.4,53.2,30.01,North,0,0.0,0.0,46,0.00,,,0.00,WUHU216HW,2013-06-19 20:11:00,
2013-06-19 16:16:00,75.6,50.9,30.01,North,0,0.0,0.0,42,0.00,,,0.00,WUHU216HW,2013-06-19 20:16:00,
2013-06-19 16:21:00,76.0,53.6,30.01,North,0,0.0,0.0,46,0.00,,,0.00,WUHU216HW,2013-06-19 20:21:00,
2013-06-19 16:26:00,76.1,51.4,30.01,North,0,0.0,0.0,42,0.00,,,0.00,WUHU216HW,2013-06-19 20:26:00,
2013-06-19 16:31:00,76.5,53.6,30.01,North,0,0.0,0.0,45,0.00,,,0.00,WUHU216HW,2013-06-19 20:31:00,
2013-06-19 16:36:00,76.5,53.6,30.01,North,0,0.0,0.0,45,0.00,,,0.00,WUHU216HW,2013-06-19 20:36:00,
2013-06-19 16:41:00,76.5,52.3,30.01,North,0,0.0,0.0,43,0.00,,,0.00,WUHU216HW,2013-06-19 20:41:00,
2013-06-19 16:46:00,76.5,51.7,30.01,North,0,0.0,0.0,42,0.00,,,0.00,WUHU216HW,2013-06-19 20:46:00,
2013-06-19 16:51:00,76.5,52.3,30.01,North,0,0.0,0.0,43,0.00,,,0.00,WUHU216HW,2013-06-19 20:51:00,
2013-06-19 16:56:00,76.3,52.7,30.01,North,0,0.0,0.0,44,0.00,,,0.00,WUHU216HW,2013-06-19 20:56:00,
2013-06-19 17:01:00,76.3,52.7,30.01,North,0,0.0,0.0,44,0.00,,,0.00,WUHU216HW,2013-06-19 21:01:00,
2013-06-19 17:06:00,76.5,53.6,30.00,North,0,0.0,0.0,45,0.00,,,0.00,WUHU216HW,2013-06-19 21:06:00,
2013-06-19 17:11:00,76.3,51.5,30.01,North,0,0.0,0.0,42,0.00,,,0.00,WUHU216HW,2013-06-19 21:11:00,
2013-06-19 17:16:00,76.3,52.1,30.00,North,0,0.0,0.0,43,0.00,,,0.00,WUHU216HW,2013-06-19 21:16:00,
2013-06-19 17:21:00,76.3,52.7,30.00,North,0,0.0,0.0,44,0.00,,,0.00,WUHU216HW,2013-06-19 21:21:00,
2013-06-19 17:26:00,76.3,52.7,30.01,North,0,0.0,0.0,44,0.00,,,0.00,WUHU216HW,2013-06-19 21:26:00,
2013-06-19 17:31:00,76.1,52.6,30.01,North,0,0.0,0.0,44,0.00,,,0.00,WUHU216HW,2013-06-19 21:31:00,
2013-06-19 17:36:00,76.1,51.9,30.01,North,0,0.0,0.0,43,0.00,,,0.00,WUHU216HW,2013-06-19 21:36:00,
2013-06-19 17:41:00,76.1,52.6,30.01,North,0,0.0,0.0,44,0.00,,,0.00,WUHU216HW,2013-06-19 21:41:00,
2013-06-19 17:46:00,76.1,53.2,30.01,North,0,0.0,0.0,45,0.00,,,0.00,WUHU216HW,2013-06-19 21:46:00,
2013-06-19 17:51:00,75.8,52.8,30.01,North,0,0.0,0.0,45,0.00,,,0.00,WUHU216HW,2013-06-19 21:51:00,
2013-06-19 17:56:00,75.4,52.6,30.01,North,0,0.0,0.0,45,0.00,,,0.00,WUHU216HW,2013-06-19 21:56:00,
2013-06-19 18:01:00,75.1,52.8,30.01,North,0,0.0,0.0,46,0.00,,,0.00,WUHU216HW,2013-06-19 22:01:00,
2013-06-19 18:06:00,74.9,52.7,30.01,North,0,0.0,0.0,46,0.00,,,0.00,WUHU216HW,2013-06-19 22:06:00,
2013-06-19 18:11:00,74.9,53.3,30.01,North,0,0.0,0.0,47,0.00,,,0.00,WUHU216HW,2013-06-19 22:11:00,
2013-06-19 18:16:00,74.9,53.3,30.02,North,0,0.0,0.0,47,0.00,,,0.00,WUHU216HW,2013-06-19 22:16:00,
2013-06-19 18:21:00,74.9,53.3,30.02,North,0,0.0,0.0,47,0.00,,,0.00,WUHU216HW,2013-06-19 22:21:00,
2013-06-19 18:26:00,74.7,53.1,30.02,North,0,0.0,0.0,47,0.00,,,0.00,WUHU216HW,2013-06-19 22:26:00,
2013-06-19 18:31:00,74.7,53.1,30.02,North,0,0.0,0.0,47,0.00,,,0.00,WUHU216HW,2013-06-19 22:31:00,
2013-06-19 18:35:00,74.7,53.1,30.02,North,0,0.0,0.0,47,0.00,,,0.00,WUHU216HW,2013-06-19 22:35:00,
2013-06-19 18:41:00,74.5,53.6,30.02,North,0,0.0,0.0,48,0.00,,,0.00,WUHU216HW,2013-06-19 22:41:00,
2013-06-19 18:46:00,74.3,53.4,30.02,North,0,0.0,0.0,48,0.00,,,0.00,WUHU216HW,2013-06-19 22:46:00,
2013-06-19 18:51:00,74.2,53.2,30.03,North,0,0.0,0.0,48,0.00,,,0.00,WUHU216HW,2013-06-19 22:51:00,
2013-06-19 18:56:00,74.0,53.6,30.03,North,0,0.0,0.0,49,0.00,,,0.00,WUHU216HW,2013-06-19 22:56:00,
2013-06-19 19:01:00,74.0,53.6,30.03,North,0,0.0,0.0,49,0.00,,,0.00,WUHU216HW,2013-06-19 23:01:00,
2013-06-19 19:06:00,73.6,53.2,30.03,North,0,0.0,0.0,49,0.00,,,0.00,WUHU216HW,2013-06-19 23:06:00,
2013-06-19 19:10:00,73.3,53.5,30.03,North,0,0.0,0.0,50,0.00,,,0.00,WUHU216HW,2013-06-19 23:10:00,
2013-06-19 19:16:00,73.1,53.8,30.03,North,0,0.0,0.0,51,0.00,,,0.00,WUHU216HW,2013-06-19 23:16:00,
2013-06-19 19:21:00,72.7,53.5,30.03,North,0,0.0,0.0,51,0.00,,,0.00,WUHU216HW,2013-06-19 23:21:00,
2013-06-19 19:26:00,72.4,53.6,30.03,North,0,0.0,0.0,52,0.00,,,0.00,WUHU216HW,2013-06-19 23:26:00,
2013-06-19 19:31:00,72.4,54.2,30.03,North,0,0.0,0.0,53,0.00,,,0.00,WUHU216HW,2013-06-19 23:31:00,
2013-06-19 19:36:00,72.2,54.6,30.04,North,0,0.0,0.0,54,0.00,,,0.00,WUHU216HW,2013-06-19 23:36:00,
2013-06-19 19:41:00,72.0,54.4,30.04,North,0,0.0,0.0,54,0.00,,,0.00,WUHU216HW,2013-06-19 23:41:00,
2013-06-19 19:46:00,71.6,55.1,30.04,North,0,0.0,0.0,56,0.00,,,0.00,WUHU216HW,2013-06-19 23:46:00,
2013-06-19 19:50:00,71.5,54.9,30.04,North,0,0.0,0.0,56,0.00,,,0.00,WUHU216HW,2013-06-19 23:50:00,
2013-06-19 19:55:00,71.3,55.3,30.05,North,0,0.0,0.0,57,0.00,,,0.00,WUHU216HW,2013-06-19 23:55:00,
2013-06-19 20:00:00,71.1,56.1,30.05,North,0,0.0,0.0,59,0.00,,,0.00,WUHU216HW,2013-06-20 00:00:00,
2013-06-19 20:06:00,70.7,56.3,30.05,North,0,0.0,0.0,60,0.00,,,0.00,WUHU216HW,2013-06-20 00:06:00,
2013-06-19 20:10:00,70.6,56.5,30.05,North,0,0.0,0.0,61,0.00,,,0.00,WUHU216HW,2013-06-20 00:10:00,
2013-06-19 20:16:00,70.2,56.6,30.05,North,0,0.0,0.0,62,0.00,,,0.00,WUHU216HW,2013-06-20 00:16:00,
2013-06-19 20:20:00,70.0,56.9,30.05,North,0,0.0,0.0,63,0.00,,,0.00,WUHU216HW,2013-06-20 00:20:00,
2013-06-19 20:25:00,69.8,56.7,30.06,North,0,0.0,0.0,63,0.00,,,0.00,WUHU216HW,2013-06-20 00:25:00,
2013-06-19 20:30:00,69.7,56.9,30.06,North,0,0.0,0.0,64,0.00,,,0.00,WUHU216HW,2013-06-20 00:30:00,
2013-06-19 20:35:00,69.5,56.8,30.06,North,0,0.0,0.0,64,0.00,,,0.00,WUHU216HW,2013-06-20 00:35:00,
2013-06-19 20:40:00,69.3,56.6,30.06,North,0,0.0,0.0,64,0.00,,,0.00,WUHU216HW,2013-06-20 00:40:00,
2013-06-19 20:45:00,69.1,56.8,30.06,North,0,0.0,0.0,65,0.00,,,0.00,WUHU216HW,2013-06-20 00:45:00,
2013-06-19 20:50:00,68.9,56.7,30.06,North,0,0.0,0.0,65,0.00,,,0.00,WUHU216HW,2013-06-20 00:50:00,
2013-06-19 20:55:00,68.8,56.5,30.06,North,0,0.0,0.0,65,0.00,,,0.00,WUHU216HW,2013-06-20 00:55:00,
2013-06-19 21:00:00,68.8,56.5,30.07,North,0,0.0,0.0,65,0.00,,,0.00,WUHU216HW,2013-06-20 01:00:00,
2013-06-19 21:05:00,68.8,56.5,30.07,North,0,0.0,0.0,65,0.00,,,0.00,WUHU216HW,2013-06-20 01:05:00,
2013-06-19 21:10:00,68.6,56.4,30.07,North,0,0.0,0.0,65,0.00,,,0.00,WUHU216HW,2013-06-20 01:10:00,
2013-06-19 21:15:00,68.4,56.2,30.07,North,0,0.0,0.0,65,0.00,,,0.00,WUHU216HW,2013-06-20 01:15:00,
2013-06-19 21:21:00,68.4,56.2,30.07,North,0,0.0,0.0,65,0.00,,,0.00,WUHU216HW,2013-06-20 01:21:00,
2013-06-19 21:26:00,68.4,56.2,30.08,North,0,0.0,0.0,65,0.00,,,0.00,WUHU216HW,2013-06-20 01:26:00,
2013-06-19 21:31:00,68.2,56.0,30.08,North,0,0.0,0.0,65,0.00,,,0.00,WUHU216HW,2013-06-20 01:31:00,
2013-06-19 21:36:00,68.2,56.0,30.08,North,0,0.0,0.0,65,0.00,,,0.00,WUHU216HW,2013-06-20 01:36:00,
2013-06-19 21:41:00,68.0,55.8,30.08,North,0,0.0,0.0,65,0.00,,,0.00,WUHU216HW,2013-06-20 01:41:00,
2013-06-19 21:46:00,68.0,55.8,30.08,North,0,0.0,0.0,65,0.00,,,0.00,WUHU216HW,2013-06-20 01:46:00,
2013-06-19 21:51:00,67.9,55.6,30.08,North,0,0.0,0.0,65,0.00,,,0.00,WUHU216HW,2013-06-20 01:51:00,
2013-06-19 21:56:00,67.9,55.6,30.09,North,0,0.0,0.0,65,0.00,,,0.00,WUHU216HW,2013-06-20 01:56:00,
2013-06-19 22:01:00,67.7,55.4,30.09,North,0,0.0,0.0,65,0.00,,,0.00,WUHU216HW,2013-06-20 02:01:00,
2013-06-19 22:06:00,67.7,55.4,30.09,North,0,0.0,0.0,65,0.00,,,0.00,WUHU216HW,2013-06-20 02:06:00,
2013-06-19 22:11:00,67.7,55.4,30.09,North,0,0.0,0.0,65,0.00,,,0.00,WUHU216HW,2013-06-20 02:11:00,
2013-06-19 22:16:00,67.5,55.7,30.09,North,0,0.0,0.0,66,0.00,,,0.00,WUHU216HW,2013-06-20 02:16:00,
2013-06-19 22:21:00,67.5,55.7,30.09,North,0,0.0,0.0,66,0.00,,,0.00,WUHU216HW,2013-06-20 02:21:00,
2013-06-19 22:26:00,67.3,55.5,30.09,North,0,0.0,0.0,66,0.00,,,0.00,WUHU216HW,2013-06-20 02:26:00,
2013-06-19 22:31:00,67.3,56.0,30.09,North,0,0.0,0.0,67,0.00,,,0.00,WUHU216HW,2013-06-20 02:31:00,
2013-06-19 22:36:00,67.3,56.0,30.09,North,0,0.0,0.0,67,0.00,,,0.00,WUHU216HW,2013-06-20 02:36:00,
2013-06-19 23:00:00,67.0,56.1,30.10,North,0,0.0,0.0,68,0.00,,,0.00,WUHU216HW,2013-06-20 03:00:00,
2013-06-19 23:05:00,67.0,56.1,30.11,North,0,0.0,0.0,68,0.00,,,0.00,WUHU216HW,2013-06-20 03:05:00,
2013-06-19 23:10:00,66.8,55.9,30.11,North,0,0.0,0.0,68,0.00,,,0.00,WUHU216HW,2013-06-20 03:10:00,
2013-06-19 23:15:00,66.6,55.7,30.11,North,0,0.0,0.0,68,0.00,,,0.00,WUHU216HW,2013-06-20 03:15:00,
2013-06-19 23:20:00,66.6,55.7,30.11,North,0,0.0,0.0,68,0.00,,,0.00,WUHU216HW,2013-06-20 03:20:00,
2013-06-19 23:25:00,66.6,55.7,30.11,North,0,0.0,0.0,68,0.00,,,0.00,WUHU216HW,2013-06-20 03:25:00,
2013-06-19 23:30:00,66.6,55.7,30.11,North,0,0.0,0.0,68,0.00,,,0.00,WUHU216HW,2013-06-20 03:30:00,
2013-06-19 23:35:00,66.6,55.7,30.11,North,0,0.0,0.0,68,0.00,,,0.00,WUHU216HW,2013-06-20 03:35:00,
2013-06-19 23:40:00,66.4,55.5,30.11,North,0,0.0,0.0,68,0.00,,,0.00,WUHU216HW,2013-06-20 03:40:00,
2013-06-19 23:45:00,66.4,55.5,30.11,North,0,0.0,0.0,68,0.00,,,0.00,WUHU216HW,2013-06-20 03:45:00,
2013-06-19 23:50:00,66.2,55.4,30.12,North,0,0.0,0.0,68,0.00,,,0.00,WUHU216HW,2013-06-20 03:50:00,
2013-06-19 23:55:00,66.2,55.4,30.11,North,0,0.0,0.0,68,0.00,,,0.00,WUHU216HW,2013-06-20 03:55:00,